Weather History for KTIF - February, 2013

Change the Weather History Date:

Wednesday, February 20, 2013

  Actual Average (KLBF) Record (KLBF)
Temperature  
Mean Temperature 18 °F 30 °F  
Max Temperature 24 °F 44 °F 74 °F (1930)
Min Temperature 12 °F 16 °F -19 °F (1959)
Degree Days  
Heating Degree Days 47 35  
Month to date heating degree days 742  
Since 1 July heating degree days 4762  
Cooling Degree Days 0 0  
Month to date cooling degree days 0  
Year to date cooling degree days 0  
Moisture  
Dew Point 7 °F    
Average Humidity 61    
Maximum Humidity 81    
Minimum Humidity 37    
Precipitation  
Precipitation 0.00 in 0.03 in 0.34 in (1962)
Month to date precipitation 0.31  
Year to date precipitation 0.65  
Snow  
Snow 0.00 in 0.20 in 3.40 in (1962)
Month to date snowfall 3.8  
Since 1 July snowfall 19.4  
Snow Depth -    
Sea Level Pressure  
Sea Level Pressure 30.03 in    
Wind  
Wind Speed 12 mph (SE)    
Max Wind Speed 20 mph    
Max Gust Speed 23 mph    
Visibility 8 miles    
Events Snow    
T = Trace of Precipitation, MM = Missing Value Source: NWS Daily Summary

Daily Weather History Graph

Daily Weather History Graph

Search for Another Location

Airport or City:

Trip Planner

Search our weather history database for the weather conditions in past years. The results will help you decide how hot, cold, wet, or windy it might be!

Date:

Astronomy

Feb. 20, 2013 Rise Set
Actual Time 7:30 AM CST 6:21 PM CST
Civil Twilight 7:02 AM CST 6:50 PM CST
Nautical Twilight 6:29 AM CST 7:22 PM CST
Astronomical Twilight 5:57 AM CST 7:55 PM CST
Moon 1:41 PM CST (2/20) 3:55 AM CST (2/20)
Length of Visible Light 11h 47m
Length of Day
10h 51m
Waxing Gibbous, 76% of the Moon is Illuminated
Feb 20
Waxing Gibbous
Feb 25
Full
Mar 4
Last Quarter
Mar 11
New
Mar 19
First Quarter

Hourly Weather History & Observations

Time (CST) Temp. Windchill Dew Point Humidity Pressure Visibility Wind Dir Wind Speed Gust Speed Precip Events Conditions
12:15 AM 15.8 °F 1.4 °F 1.0 °F 52% 30.15 in 10.0 mi ESE 13.8 mph - N/A   Clear
12:35 AM 15.8 °F 4.2 °F 0.9 °F 52% 30.15 in 10.0 mi ESE 9.2 mph - N/A   Clear
12:55 AM 15.4 °F 3.0 °F 0.5 °F 52% 30.14 in 10.0 mi ESE 10.4 mph - N/A   Clear
1:15 AM 14.9 °F 1.6 °F 0.3 °F 53% 30.14 in 10.0 mi ESE 11.5 mph - N/A   Clear
1:35 AM 14.7 °F 2.1 °F -0.0 °F 52% 30.12 in 10.0 mi ESE 10.4 mph - N/A   Clear
1:55 AM 14.4 °F 0.9 °F -0.4 °F 52% 30.12 in 10.0 mi ESE 11.5 mph - N/A   Clear
2:15 AM 14.0 °F 1.2 °F -0.4 °F 53% 30.11 in 10.0 mi ESE 10.4 mph - N/A   Clear
2:35 AM 13.8 °F 1.8 °F -0.4 °F 53% 30.10 in 10.0 mi ESE 9.2 mph 16.1 mph N/A   Clear
2:55 AM 13.5 °F 1.3 °F -0.0 °F 55% 30.10 in 10.0 mi ESE 9.2 mph - N/A   Clear
3:15 AM 13.1 °F 0.1 °F -0.2 °F 55% 30.09 in 10.0 mi ESE 10.4 mph - N/A   Clear
3:35 AM 13.1 °F 0.9 °F -0.0 °F 56% 30.09 in 10.0 mi ESE 9.2 mph - N/A   Clear
3:55 AM 12.6 °F 0.2 °F -0.2 °F 57% 30.08 in 10.0 mi ESE 9.2 mph - N/A   Clear
4:15 AM 12.7 °F 1.4 °F -0.0 °F 57% 30.08 in 10.0 mi ESE 8.1 mph - N/A   Clear
4:35 AM 12.2 °F -0.2 °F 0.3 °F 59% 30.08 in 10.0 mi ESE 9.2 mph - N/A   Clear
4:55 AM 12.0 °F -1.3 °F 0.1 °F 59% 30.07 in 10.0 mi ESE 10.4 mph - N/A   Clear
5:15 AM 12.0 °F -0.4 °F 0.1 °F 59% 30.07 in 10.0 mi ESE 9.2 mph - N/A   Clear
5:35 AM 12.2 °F -1.0 °F -0.0 °F 58% 30.07 in 10.0 mi ESE 10.4 mph - N/A   Clear
5:55 AM 12.6 °F -2.0 °F -0.4 °F 56% 30.06 in 10.0 mi ESE 12.7 mph - N/A   Clear
6:15 AM 12.6 °F -0.6 °F -0.6 °F 56% 30.06 in 10.0 mi ESE 10.4 mph - N/A   Clear
6:55 AM 12.6 °F -1.4 °F -2.7 °F 51% 30.05 in 10.0 mi ESE 11.5 mph 16.1 mph N/A   Clear
7:15 AM 12.6 °F -3.3 °F -4.0 °F 48% 30.05 in 10.0 mi SE 15.0 mph - N/A   Clear
7:35 AM 12.6 °F -0.6 °F -4.0 °F 48% 30.06 in 10.0 mi SE 10.4 mph - N/A   Clear
7:55 AM 13.1 °F 0.1 °F -3.1 °F 49% 30.06 in 10.0 mi SE 10.4 mph - N/A   Mostly Cloudy
8:15 AM 14.0 °F 0.5 °F -3.3 °F 46% 30.06 in 10.0 mi SE 11.5 mph - N/A   Overcast
8:35 AM 14.9 °F 0.9 °F -4.0 °F 43% 30.07 in 10.0 mi SE 12.7 mph - N/A   Overcast
8:55 AM 14.9 °F -0.8 °F -4.4 °F 42% 30.07 in 10.0 mi SE 16.1 mph 20.7 mph N/A   Overcast
9:15 AM 15.4 °F 2.3 °F -4.2 °F 42% 30.06 in 10.0 mi SE 11.5 mph 19.6 mph N/A   Overcast
9:35 AM 15.8 °F 1.4 °F -4.5 °F 40% 30.07 in 10.0 mi SE 13.8 mph - N/A   Overcast
9:55 AM 16.7 °F 2.6 °F -4.4 °F 39% 30.06 in 10.0 mi SE 13.8 mph 17.3 mph N/A   Overcast
10:15 AM 17.2 °F 4.5 °F -4.2 °F 39% 30.06 in 10.0 mi SE 11.5 mph - N/A   Overcast
10:35 AM 18.0 °F 6.1 °F -4.2 °F 38% 30.06 in 10.0 mi SE 10.4 mph - N/A   Overcast
10:55 AM 18.7 °F 5.1 °F -3.8 °F 37% 30.06 in 10.0 mi SE 13.8 mph - N/A Snow Light Snow
11:15 AM 19.4 °F 7.9 °F -1.8 °F 39% 30.06 in 7.0 mi SE 10.4 mph - N/A Snow Light Snow
11:35 AM 20.5 °F 7.4 °F 0.1 °F 41% 30.06 in 10.0 mi SE 13.8 mph 19.6 mph N/A Snow Light Snow
11:55 AM 20.7 °F 7.1 °F 4.3 °F 49% 30.05 in 4.0 mi SE 15.0 mph 20.7 mph N/A Snow Light Snow
12:15 PM 21.6 °F 6.5 °F 6.3 °F 52% 30.05 in 10.0 mi SSE 19.6 mph 23.0 mph N/A Snow Light Snow
12:35 PM 21.2 °F 6.8 °F 8.2 °F 57% 30.04 in 5.0 mi SE 17.3 mph - N/A Snow Light Snow
12:55 PM 21.2 °F 7.8 °F 10.4 °F 63% 30.03 in 3.0 mi SE 15.0 mph 20.7 mph N/A Snow Light Snow
1:15 PM 21.7 °F 8.5 °F 12.2 °F 67% 30.02 in 5.0 mi SSE 15.0 mph - N/A Snow Light Snow
1:35 PM 22.1 °F 8.9 °F 13.1 °F 68% 30.01 in 4.0 mi SE 15.0 mph 18.4 mph N/A Snow Light Snow
1:55 PM 22.1 °F 8.9 °F 13.6 °F 70% 30.00 in 2.5 mi SE 15.0 mph - N/A Snow Light Snow
2:15 PM 23.0 °F 10.1 °F 14.4 °F 70% 29.99 in 5.0 mi SE 15.0 mph 19.6 mph N/A Snow Light Snow
2:35 PM 23.4 °F 11.1 °F 14.7 °F 70% 29.98 in 5.0 mi SE 13.8 mph 18.4 mph N/A Snow Light Snow
2:55 PM 23.0 °F 10.6 °F 14.5 °F 70% 29.97 in 5.0 mi SE 13.8 mph - N/A   Haze
3:15 PM 23.7 °F 10.5 °F 14.9 °F 69% 29.96 in 10.0 mi SE 16.1 mph 21.9 mph N/A   Overcast
3:35 PM 23.4 °F 9.6 °F 14.9 °F 70% 29.96 in 10.0 mi SE 17.3 mph - N/A   Overcast
3:55 PM 23.4 °F 11.1 °F 15.6 °F 72% 29.95 in 10.0 mi SE 13.8 mph 23.0 mph N/A   Overcast
4:15 PM 23.4 °F 9.6 °F 15.8 °F 73% 29.95 in 10.0 mi SE 17.3 mph 20.7 mph N/A   Overcast
4:35 PM 23.5 °F 9.9 °F 16.0 °F 73% 29.95 in 10.0 mi SE 17.3 mph - N/A   Overcast
4:55 PM 23.9 °F 12.9 °F 16.3 °F 73% 29.96 in 10.0 mi SE 11.5 mph - N/A   Overcast
5:15 PM 23.9 °F 12.9 °F 16.5 °F 73% 29.96 in 10.0 mi SE 11.5 mph 16.1 mph N/A   Overcast
5:35 PM 24.3 °F 13.3 °F 16.3 °F 72% 29.95 in 10.0 mi ESE 11.5 mph 19.6 mph N/A   Overcast
5:55 PM 24.4 °F 14.2 °F 16.5 °F 72% 29.95 in 10.0 mi ESE 10.4 mph - N/A   Overcast
6:15 PM 23.9 °F 11.7 °F 16.0 °F 72% 29.95 in 10.0 mi ESE 13.8 mph - N/A   Overcast
6:35 PM 23.7 °F 12.1 °F 16.7 °F 75% 29.96 in 10.0 mi ESE 12.7 mph - N/A   Overcast
6:55 PM 23.2 °F 11.4 °F 16.7 °F 76% 29.96 in 5.0 mi ESE 12.7 mph 16.1 mph N/A   Haze
7:15 PM 22.8 °F 10.9 °F 16.7 °F 77% 29.96 in 5.0 mi ESE 12.7 mph - N/A Snow Light Snow
7:35 PM 22.1 °F 10.0 °F 16.7 °F 80% 29.96 in 2.0 mi ESE 12.7 mph 17.3 mph N/A Snow Light Snow
7:55 PM 21.7 °F 9.6 °F 16.7 °F 81% 29.97 in 1.8 mi ESE 12.7 mph 17.3 mph N/A Snow Light Snow
8:15 PM 21.4 °F 9.7 °F 16.3 °F 81% 29.97 in 2.5 mi SE 11.5 mph 16.1 mph N/A Snow Light Snow
8:35 PM 21.0 °F 8.1 °F 15.8 °F 80% 29.97 in 5.0 mi ESE 13.8 mph - N/A Snow Light Snow
9:15 PM 20.7 °F 8.8 °F 15.3 °F 80% 29.98 in 10.0 mi ESE 11.5 mph - N/A   Overcast
9:35 PM 20.3 °F 5.7 °F 14.9 °F 80% 29.98 in 10.0 mi SE 17.3 mph - N/A   Overcast
9:55 PM 20.3 °F 9.8 °F 14.9 °F 80% 29.98 in 4.0 mi ESE 9.2 mph 18.4 mph N/A Snow Light Snow
10:35 PM 20.1 °F 6.9 °F 14.4 °F 78% 29.98 in 7.0 mi SE 13.8 mph - N/A Snow Light Snow
10:55 PM 20.1 °F 6.9 °F 14.4 °F 78% 29.98 in 7.0 mi SE 13.8 mph - N/A Snow Light Snow
11:15 PM 20.3 °F 9.0 °F 14.5 °F 78% 29.98 in 7.0 mi SE 10.4 mph - N/A Snow Light Snow
11:35 PM 20.1 °F 7.5 °F 14.7 °F 80% 29.98 in 1.8 mi SE 12.7 mph 17.3 mph N/A Snow Light Snow
11:55 PM 19.9 °F 7.3 °F 14.5 °F 80% 29.98 in 2.0 mi SE 12.7 mph 18.4 mph N/A Snow Light Snow